Location: Hines Observatory
(31.5604°N, 83.5172°W)
Time: 17:14:25
(UTC-05:00)

Daily predictions for brighter satellites

Satellite Brightness Start Highest point End
(mag) Time Altitude Azimuth Time Altitude Azimuth Time Altitude Azimuth
CZ-3B DEB 1.4 17:53:10 10° SW 17:55:51 87° NW 18:02:20 10° NE
CZ-4 R/B 1.4 17:53:16 10° SSE 17:57:27 76° ENE 18:01:38 10° N
Thor Agena Rocket 3.7 17:53:59 10° NNE 17:59:13 86° WNW 18:04:28 10° SSW
NOSS 3-1 (A) 4.1 17:51:53 10° NNW 17:59:46 77° ENE 18:08:12 10° SSE
Cosmos 1269 Rocket 4.0 17:59:44 10° NNW 18:05:04 83° ENE 18:10:22 10° SSE
Cosmos 1812 3.4 18:02:53 10° SSE 18:06:21 33° E 18:09:51 10° NNE
YAOGAN 1 2.5 18:05:17 10° SSE 18:09:35 71° ENE 18:13:53 10° N
ATLAS 2AS CENTAUR R/B 3.7 18:04:42 10° N 18:11:37 31° NE 18:18:08 10° ESE
SL-8 Rocket 4.0 18:06:34 10° N 18:12:39 61° E 18:18:42 10° SSE
Centaur D AC-25 4.5 18:11:01 10° SSW 18:14:55 27° SE 18:23:59 11° E
Cosmos 2251 Rocket 4.4 18:10:37 10° N 18:15:09 27° ENE 18:19:38 10° SE
Cosmos 1633 4.4 18:12:56 10° NNW 18:16:12 34° W 18:19:27 10° SSW
Cosmos 1844 Rocket 3.0 18:13:35 10° SSW 18:19:07 70° WNW 18:24:44 10° NNE
MOS 1 4.5 18:13:40 10° S 18:19:20 80° WSW 18:25:01 10° NNW
OTV 4 1.5 18:19:08 10° NW 18:21:52 30° N 18:23:24 19° ENE
Cosmos 2366 rocket 4.2 18:16:00 10° N 18:22:10 52° E 18:28:16 10° SSE
Cosmos 1975 4.0 18:19:00 10° NNE 18:22:12 22° ENE 18:25:22 10° SE
Cosmos 2218 Rocket 4.0 18:16:21 10° N 18:22:33 61° E 18:28:39 10° SSE
Cosmos 1844 3.7 18:20:32 10° SSW 18:26:06 84° WNW 18:31:42 10° NNE
GEOS 3 Rocket 4.2 18:24:13 10° ESE 18:28:49 34° NE 18:33:24 10° NNW
Cosmos 1959 Rocket 4.4 18:23:04 10° N 18:29:13 70° E 18:35:26 10° SSE
SL-27 R/B 3.0 18:28:38 10° N 18:32:05 38° ENE 18:35:29 10° SE
Meteor 2-19 Rocket 4.4 18:28:36 10° N 18:34:40 83° E 18:40:43 10° S
SKYMED 2 3.5 18:30:26 10° NNE 18:34:47 79° ESE 18:39:07 10° S
SL-8 R/B 3.7 18:30:55 10° SW 18:35:42 80° NW 18:39:04 19° NE
ISS -0.9 18:34:14 10° WNW 18:36:25 16° NW 18:38:36 10° N
Cosmos 1455 Rocket 3.0 18:34:04 10° N 18:38:26 62° E 18:42:47 10° SSE
Cosmos 2278 Rocket 2.1 18:38:49 10° SSW 18:44:27 82° ESE 18:50:04 10° NNE
Delta 2 Rocket 4.0 18:43:55 10° SW 18:47:42 43° SSE 18:49:26 28° E
COSMOS 2406 3.6 18:42:40 10° NNW 18:48:20 67° WSW 18:54:01 10° S
Cosmos 1484 Rocket 2.7 18:49:01 10° S 18:52:49 80° W 18:56:35 10° NNW
CZ-2C R/B 4.2 18:48:35 10° SSW 18:52:59 34° W 18:57:32 10° NNW
KM-V1 4.0 18:52:39 10° WSW 18:54:10 37° SSW 18:54:10 37° SSW
Tiangong 1 1.6 19:04:11 10° SW 19:06:36 49° SSW 19:06:36 49° SSW
Nadezhda 3 Rocket 3.9 19:05:56 10° S 19:12:05 85° E 19:18:20 10° N
Cosmos 2082 Rocket 4.2 19:10:20 10° N 19:10:50 12° NNE 19:10:50 12° NNE
Hubble Space Telescope 2.7 19:22:34 10° WSW 19:25:53 23° SSW 19:27:01 21° S
TIMED 4.4 19:21:49 10° SSW 19:26:02 84° S 19:26:02 84° S
Meteor 2-21 4.4 19:20:23 10° N 19:26:35 85° W 19:32:42 10° S
Meteor 2-4 Rocket 3.9 19:23:22 10° S 19:27:45 49° SE 19:27:45 49° SE
Cosmos 1500 3.8 19:28:52 40° NW 19:29:54 55° W 19:33:39 10° S
METEOR-M 4.0 19:29:53 10° SSE 19:35:13 87° WSW 19:40:35 10° NNW
Cosmos 1346 Rocket 4.5 19:33:25 10° SW 19:36:56 31° WNW 19:38:33 23° NW
NOAA 12 4.4 19:32:52 10° S 19:38:07 67° WSW 19:43:23 10° NNW
FALCON 9 R/B 2.9 19:43:49 10° W 20:01:26 74° N 20:01:52 72° NNE
ATLAS 2AS CENTAUR R/B 3.5 19:55:18 10° NW 20:02:57 54° WSW 20:09:59 10° S
ATLAS 3B CENTAUR R/B 3.1 20:10:42 10° W 20:22:04 61° SW 20:22:04 61° SW
